(199131) = 2001 SP186 = 2005 YC96

Discovered at Kitt Peak on 2005-12-25 by Spacewatch.

Orbit

Orbit type: Main Belt

Note: WebGL enabled browser required.

epoch2024-03-31.0
epoch JD2460400.5
perihelion date2022-03-20.26661
perihelion JD2459658.76662
argument of perihelion (°)40.31927
ascending node (°)20.02325
inclination (°)1.97491
eccentricity0.1019609
perihelion distance (AU)2.0007124
Tisserand w.r.t. Jupiter3.6
ΔV w.r.t. Earth (km/sec)8.7
semimajor axis (AU)2.2278677
mean anomaly (°)219.84561
mean daily motion (°/day)0.29639440
aphelion distance (AU)2.455
period (years)3.33
P-vector [x]0.49494547
P-vector [y]0.78808987
P-vector [z]0.36598271
Q-vector [x]-0.86884391
Q-vector [y]0.44314067
Q-vector [z]0.22076368
absolute magnitude17.57
phase slope0.15
uncertainty0
referenceE2024-FB1
observations used518
oppositions13
arc length (days)7880
first opposition used2001
last opposition used2023
residual rms (arc-secs)0.75
perturbers coarse indicatorM-v
perturbers precise indicator003Ek
first observation date used2001-09-19.0
last observation date used2023-04-17.0
computer nameMPCLINUX
JD of orbit computation2456909.330017
perihelion JD uncertainty (days)6.7629E-05
argument of perihelion uncertainty (°)8.0430E-05
ascending node uncertainty (°)7.8332E-05
inclination uncertainty (°)3.0064E-06
eccentricity uncertainty 2.7742E-08
perihelion distance uncertainty (AU)6.7437E-08
Minimum Orbit Intersection Distances (in AU)
for orbit epoch: 2460400.5, reference: E2024-FB1
Mercury1.68919
Venus1.27978
Earth1.01394
Mars0.45013
Jupiter2.7915
Saturn7.00108
Uranus16.1368
Neptune27.7807

Observations

525 total observations over interval: 2001 09 19.19072 – 2023 04 17.298012
These data are available for download (format description).

Date (UT) J2000 RA J2000 Dec Magn Location Ref
2001 09 19.19072 23 09 13.98 -07 26 27.0 19.4   704 – Lincoln Laboratory ETS, New Mexico MPS 36727
2001 09 19.20493 23 09 13.17 -07 26 31.6 19.9   704 – Lincoln Laboratory ETS, New Mexico MPS 36727
2001 09 19.21913 23 09 12.22 -07 26 35.3 20.0   704 – Lincoln Laboratory ETS, New Mexico MPS 36727
2001 09 19.23331 23 09 11.47 -07 26 39.5 19.8   704 – Lincoln Laboratory ETS, New Mexico MPS 36727
2001 09 19.24750 23 09 10.55 -07 26 44.4 20.2   704 – Lincoln Laboratory ETS, New Mexico MPS 36727
2001 09 21.24767 23 07 17.09 -07 35 43.5 19.2   704 – Lincoln Laboratory ETS, New Mexico MPS 36727
2001 09 21.26186 23 07 16.24 -07 35 47.2 19.5   704 – Lincoln Laboratory ETS, New Mexico MPS 36727
2001 09 21.27600 23 07 15.38 -07 35 51.5 19.5   704 – Lincoln Laboratory ETS, New Mexico MPS 36727
2001 09 21.30430 23 07 13.77 -07 35 59.1 19.8   704 – Lincoln Laboratory ETS, New Mexico MPS 36727
2003 04 01.220810 11 17 25.915 +05 58 43.07 20.68 V 645 – Apache Point-Sloan Digital Sky Survey MPS 163879
2003 04 01.224282 11 17 25.741 +05 58 43.77 21.52   645 – Apache Point-Sloan Digital Sky Survey MPS 163879
2005 12 25.45742 08 41 30.36 +21 52 28.5 20.4 V 691 – Steward Observatory, Kitt Peak-Spacewatch MPS 156765
2005 12 25.47481 08 41 29.71 +21 52 31.9 20.1 V 691 – Steward Observatory, Kitt Peak-Spacewatch MPS 156765
2005 12 25.49219 08 41 29.04 +21 52 35.1 20.3 V 691 – Steward Observatory, Kitt Peak-Spacewatch MPS 156765
2005 12 29.38732 08 38 55.88 +22 05 51.5   691 – Steward Observatory, Kitt Peak-Spacewatch MPS 156765
2005 12 29.40469 08 38 55.07 +22 05 55.4   691 – Steward Observatory, Kitt Peak-Spacewatch MPS 156765
2005 12 29.42199 08 38 54.25 +22 05 59.2   691 – Steward Observatory, Kitt Peak-Spacewatch MPS 156765
2005 12 30.42096 08 38 09.63 +22 09 35.1 20.1 V G96 – Mt. Lemmon Survey MPS 157890
2005 12 30.42882 08 38 09.27 +22 09 36.8 20.0 V G96 – Mt. Lemmon Survey MPS 157890
2005 12 30.43740 08 38 08.84 +22 09 38.4 20.1 V G96 – Mt. Lemmon Survey MPS 157890
2005 12 30.44581 08 38 08.44 +22 09 40.5 20.1 V G96 – Mt. Lemmon Survey MPS 157890
2006 01 05.33716 08 33 06.64 +22 32 05.0 19.6   704 – Lincoln Laboratory ETS, New Mexico MPS 157890
2006 01 05.35013 08 33 05.86 +22 32 07.7 20.3   704 – Lincoln Laboratory ETS, New Mexico MPS 157890
2006 01 05.36295 08 33 05.10 +22 32 09.7 20.0   704 – Lincoln Laboratory ETS, New Mexico MPS 157890
2006 01 20.28074 08 16 55.77 +23 28 46.8 19.2 R 699 – Lowell Observatory-LONEOS MPS 159942
2006 01 20.30629 08 16 53.82 +23 28 53.1   699 – Lowell Observatory-LONEOS MPS 159942
2006 01 20.33187 08 16 52.04 +23 28 55.5   699 – Lowell Observatory-LONEOS MPS 159942
2006 01 20.35746 08 16 50.00 +23 29 02.7   699 – Lowell Observatory-LONEOS MPS 159942
2006 01 22.11607 08 14 47.73 +23 34 51.4 19.7 V 691 – Steward Observatory, Kitt Peak-Spacewatch MPS 160528
2006 01 22.13334 08 14 46.51 +23 34 55.4 19.8 V 691 – Steward Observatory, Kitt Peak-Spacewatch MPS 160528
2006 01 22.15061 08 14 45.29 +23 34 58.9 19.7 V 691 – Steward Observatory, Kitt Peak-Spacewatch MPS 160528
2006 01 27.23934 08 08 53.44 +23 50 09.2 19.8 V G96 – Mt. Lemmon Survey MPS 161879
2006 01 27.24935 08 08 52.72 +23 50 10.3 19.5 V G96 – Mt. Lemmon Survey MPS 161879
2006 01 27.25486 08 08 52.36 +23 50 11.8 19.5 V G96 – Mt. Lemmon Survey MPS 161879
2006 01 27.26032 08 08 51.97 +23 50 12.8 19.8 V G96 – Mt. Lemmon Survey MPS 161879
2006 02 02.27094 08 02 20.50 +24 04 11.6 20.2 V 703 – Catalina Sky Survey MPS 161879
2006 02 02.27741 08 02 20.07 +24 04 12.1 19.8 V 703 – Catalina Sky Survey MPS 161879
2006 02 02.28394 08 02 19.68 +24 04 12.5 19.7 V 703 – Catalina Sky Survey MPS 161879
2006 02 02.29038 08 02 19.24 +24 04 14.0 19.7 V 703 – Catalina Sky Survey MPS 161879
2008 07 29.44474 02 51 05.43 +16 14 43.4 21.5 V G96 – Mt. Lemmon Survey MPS 252944
2008 07 29.44846 02 51 05.76 +16 14 45.2 21.4 V G96 – Mt. Lemmon Survey MPS 252944
2008 07 29.45207 02 51 06.12 +16 14 47.2 21.8 V G96 – Mt. Lemmon Survey MPS 252944
2008 07 29.45569 02 51 06.40 +16 14 48.9 22.1 V G96 – Mt. Lemmon Survey MPS 252944
2008 07 30.43641 02 52 39.82 +16 22 21.1 21.8 V G96 – Mt. Lemmon Survey MPS 252944
2008 07 30.44358 02 52 40.51 +16 22 24.0 21.4 V G96 – Mt. Lemmon Survey MPS 252944
2008 07 30.45087 02 52 41.12 +16 22 27.8 22.2 V G96 – Mt. Lemmon Survey MPS 252944
2008 07 30.45803 02 52 41.80 +16 22 31.4 21.1 V G96 – Mt. Lemmon Survey MPS 252944
2008 09 06.41352 03 43 29.60 +20 11 39.5 20.8 V G96 – Mt. Lemmon Survey MPS 255881
2008 09 06.41897 03 43 29.92 +20 11 41.1 21.5 V G96 – Mt. Lemmon Survey MPS 255881
2008 09 06.42448 03 43 30.21 +20 11 42.4 21.4 V G96 – Mt. Lemmon Survey MPS 255881
2008 09 06.42994 03 43 30.57 +20 11 44.1 20.9 V G96 – Mt. Lemmon Survey MPS 255881
2008 09 22.39529 03 56 09.52 +21 11 41.9 20.2 V G96 – Mt. Lemmon Survey MPS 256724
2008 09 22.40696 03 56 09.88 +21 11 44.2 20.4 V G96 – Mt. Lemmon Survey MPS 256724
2008 09 22.41869 03 56 10.24 +21 11 46.6 20.4 V G96 – Mt. Lemmon Survey MPS 256724
2008 09 22.43045 03 56 10.60 +21 11 48.9 20.1 V G96 – Mt. Lemmon Survey MPS 256724
2008 10 23.36422 03 56 05.15 +22 03 00.4 20.2 V 691 – Steward Observatory, Kitt Peak-Spacewatch MPS 260612
2008 10 23.38190 03 56 04.45 +22 03 01.6 19.8 V 691 – Steward Observatory, Kitt Peak-Spacewatch MPS 260612
2008 10 23.39959 03 56 03.78 +22 03 00.6 20.2 V 691 – Steward Observatory, Kitt Peak-Spacewatch MPS 260612
2008 10 31.28476 03 50 19.39 +21 59 47.8   691 – Steward Observatory, Kitt Peak-Spacewatch MPS 261570
2008 10 31.30248 03 50 18.43 +21 59 46.8   691 – Steward Observatory, Kitt Peak-Spacewatch MPS 261570
2008 10 31.32020 03 50 17.44 +21 59 45.8   691 – Steward Observatory, Kitt Peak-Spacewatch MPS 261570
2008 11 01.30946 03 49 25.81 +21 58 50.6 19.9   704 – Lincoln Laboratory ETS, New Mexico MPS 263239
2008 11 01.32123 03 49 25.16 +21 58 50.5 19.8   704 – Lincoln Laboratory ETS, New Mexico MPS 263239
2008 11 01.33301 03 49 24.58 +21 58 48.5 19.7   704 – Lincoln Laboratory ETS, New Mexico MPS 263239
2008 11 01.34473 03 49 23.94 +21 58 49.9 20.0   704 – Lincoln Laboratory ETS, New Mexico MPS 263239
2008 11 01.35659 03 49 23.17 +21 58 48.2 20.1   704 – Lincoln Laboratory ETS, New Mexico MPS 263239
2008 11 08.32004 03 42 38.65 +21 49 04.5 19.7 V 691 – Steward Observatory, Kitt Peak-Spacewatch MPS 264613
2008 11 08.33771 03 42 37.49 +21 49 02.6 19.5 V 691 – Steward Observatory, Kitt Peak-Spacewatch MPS 264613
2008 11 08.35538 03 42 36.32 +21 49 00.8 19.6 V 691 – Steward Observatory, Kitt Peak-Spacewatch MPS 264613
2008 11 18.05303 03 32 00.96 +21 27 21.4 19.1 V J75 – OAM Observatory, La Sagra MPS 266340
2008 11 18.07073 03 31 59.84 +21 27 18.3 19.0 V J75 – OAM Observatory, La Sagra MPS 266340
2008 11 18.08760 03 31 58.62 +21 27 15.3 18.8 V J75 – OAM Observatory, La Sagra MPS 266340
2008 11 20.27448 03 29 33.03 +21 21 24.7 19.2 V G96 – Mt. Lemmon Survey MPS 266340
2008 11 20.28010 03 29 32.64 +21 21 23.7 19.2 V G96 – Mt. Lemmon Survey MPS 266340
2008 11 20.28565 03 29 32.24 +21 21 22.8 19.2 V G96 – Mt. Lemmon Survey MPS 266340
2008 11 20.29122 03 29 31.88 +21 21 22.2 19.1 V G96 – Mt. Lemmon Survey MPS 266340
2008 11 20.32601 03 29 29.40 +21 21 17.1 19.3   704 – Lincoln Laboratory ETS, New Mexico MPS 266340
2008 11 20.33852 03 29 28.52 +21 21 14.4 19.6   704 – Lincoln Laboratory ETS, New Mexico MPS 266340
2008 11 20.35101 03 29 27.70 +21 21 12.8 19.5   704 – Lincoln Laboratory ETS, New Mexico MPS 266340
2008 11 20.36358 03 29 26.77 +21 21 10.1 19.4   704 – Lincoln Laboratory ETS, New Mexico MPS 266340
2008 11 20.37615 03 29 25.91 +21 21 08.0 19.7   704 – Lincoln Laboratory ETS, New Mexico MPS 266340
2008 11 25.19808 03 24 12.35 +21 07 25.6 19.3   704 – Lincoln Laboratory ETS, New Mexico MPS 267343
2008 11 25.21037 03 24 11.64 +21 07 25.2 19.9   704 – Lincoln Laboratory ETS, New Mexico MPS 267343
2008 11 25.22270 03 24 10.72 +21 07 23.2 19.9   704 – Lincoln Laboratory ETS, New Mexico MPS 267343
2008 11 25.23501 03 24 09.91 +21 07 20.4 19.7   704 – Lincoln Laboratory ETS, New Mexico MPS 267343
2008 11 25.24735 03 24 09.08 +21 07 18.5 20.0   704 – Lincoln Laboratory ETS, New Mexico MPS 267343
2008 11 30.19062 03 19 09.26 +20 52 56.2   291 – LPL/Spacewatch II MPS 268751
